Home > Time Zones > World Clock > Weather > India > Surat > Past weeks

Flag for India Weather past 2 weeks in Surat, Gujarat, India

Now
77 °F

Fog.


Feels Like: 78 °F
Forecast: 79 / 85 °F
Wind: 6 mph from Southwest

Location: Ahmadabad Airport

Current Time: Aug 30, 2014 at 6:31:27 AM

Latest Report: Aug 30, 2014 at 5:40 AM


Visibility: 2 mi

Pressure: 29.62 "Hg

Humidity: 100%

Dew point: 77 °F

Location of SuratLocation

Historic Weather in Surat — Graph

°F

Surat temperature yesterday

Maximum temperature yesterday: 99 °F (at 3:40 PM)
Minimum temperature yesterday: 81 °F (at 11:40 PM)
Average temperature yesterday: 89 °F

Past Weeks' High & Low Weather Summary

 TemperatureHumidityPressure
High99 °F (Aug 20, 2:40 PM)100% (Aug 15, 7:40 AM)29.86 "Hg (Aug 15, 7:40 AM)
Low77 °F (Aug 15, 7:40 AM)47% (Aug 29, 4:40 PM)29.53 "Hg (Aug 29, 4:10 PM)
Average87 °F72%29.70 "Hg
* Reported Aug 15 4:40 AM — Aug 30 4:40 AM, Surat, Weather by CustomWeather, © 2014

Note: Actual official high and low records may vary slightly from our data, if they occured in-between our weather recording intervals... More about our weather records

Advertising

Surat weather history for previous 24 hours

 ConditionsComfort  
Time TempWeatherWind HumidityBarometerVisibility
4:40 AM
Aug 30
77 °FLight rain. Passing clouds.6 mph100%29.62 "Hg2 mi
4:10 AM79 °FLight rain. Passing clouds.6 mph94%29.62 "Hg2 mi
3:40 AM79 °FLight rain. Passing clouds.6 mph94%29.62 "Hg2 mi
3:10 AM77 °FLight rain. Passing clouds.6 mph100%29.62 "Hg2 mi
2:10 AM77 °FLight rain. Passing clouds.2 mph94%29.65 "Hg2 mi
12:40 AM81 °FFog.6 mph94%29.68 "Hg2 mi
12:10 AM81 °FLight rain. Passing clouds.5 mph94%29.65 "Hg2 mi
11:40 PM
Aug 29
81 °FLight rain. Passing clouds.5 mph94%29.65 "Hg2 mi
11:10 PM82 °FFog.6 mph84%29.68 "Hg2 mi
10:40 PM84 °FPassing clouds.3 mph79%29.68 "Hg2 mi
10:10 PM86 °FPassing clouds.6 mph75%29.65 "Hg2 mi
9:40 PM88 °FWarm.N/A66%29.65 "HgN/A
7:40 PM91 °FPassing clouds.No wind56%29.59 "Hg2 mi
6:40 PM93 °FScattered clouds.5 mph63%29.56 "Hg4 mi
6:10 PM95 °FScattered clouds.5 mph56%29.56 "Hg4 mi
4:40 PM99 °FScattered clouds.5 mph47%29.53 "Hg4 mi
4:10 PM99 °FScattered clouds.7 mph50%29.53 "Hg4 mi
3:40 PM99 °FScattered clouds.7 mph50%29.56 "Hg4 mi
3:10 PM97 °FBroken clouds.7 mph60%29.56 "Hg4 mi
2:40 PM97 °FBroken clouds.6 mph60%29.59 "Hg4 mi
2:10 PM95 °FBroken clouds.6 mph60%29.62 "Hg4 mi
1:40 PM95 °FBroken clouds.6 mph60%29.62 "Hg4 mi
12:40 PM95 °FScattered clouds.5 mph63%29.65 "Hg4 mi
12:10 PM95 °FScattered clouds.6 mph60%29.65 "Hg4 mi
11:40 AM95 °FPassing clouds.7 mph63%29.65 "Hg4 mi
11:10 AM93 °FPassing clouds.7 mph67%29.65 "Hg4 mi
10:40 AM93 °FPassing clouds.7 mph63%29.68 "Hg4 mi
10:10 AM91 °FPassing clouds.7 mph71%29.68 "Hg4 mi
9:40 AM90 °FClear.6 mph71%29.68 "Hg3 mi
8:40 AM86 °FHaze.6 mph75%29.65 "Hg2 mi
8:10 AM84 °FHaze.5 mph79%29.65 "Hg2 mi
7:40 AM82 °FHaze.6 mph84%29.65 "Hg2 mi
7:10 AM82 °FHaze.5 mph84%29.65 "Hg2 mi
6:40 AM82 °FHaze.3 mph84%29.65 "Hg2 mi
Weather by CustomWeather, © 2014

See weather overviewHow to use our weather pages